FDX9 ELLX-LEMD

Flight info

Callsign FDX9
Flight time 1h 54m
Altitude 35000
Route RAPOR DCT GIMER DCT AHVEC UN857 DISAK DCT ARKIP DCT ARNAV DCT LMG DCT UVELI DCT OSMOB DCT ARVID T424 PPN N10 BANEV
Aircraft B77L/H-SDE1E2E3FGHIJ2J3J4J5M1RWXY/LB1D1

Departure

Time 2026-05-01 09:35
Airport Luxembourg-Findel International Airport (ELLX)

Arrival

Time 2026-05-01 11:29
Airport Adolfo Suárez Madrid–Barajas Airport (LEMD)
Time Latitude Longitude Altitude Speed Heading
2026-05-01 09:12 49.63152 6.21633 1216 ft 0 kts 61°
2026-05-01 09:26 49.63115 6.21693 1213 ft 6 kts 202°
2026-05-01 09:26 49.63074 6.21620 1211 ft 11 kts 234°
2026-05-01 09:27 49.62992 6.21375 1210 ft 13 kts 245°
2026-05-01 09:27 49.62955 6.21246 1210 ft 13 kts 246°
2026-05-01 09:27 49.62916 6.21116 1211 ft 13 kts 244°
2026-05-01 09:28 49.62876 6.20988 1212 ft 13 kts 243°
2026-05-01 09:28 49.62832 6.20854 1210 ft 15 kts 243°
2026-05-01 09:28 49.62791 6.20746 1210 ft 0 kts 233°
2026-05-01 09:30 49.62757 6.20692 1208 ft 13 kts 220°
2026-05-01 09:30 49.62672 6.20585 1201 ft 18 kts 221°
2026-05-01 09:30 49.62486 6.20248 1192 ft 23 kts 238°
2026-05-01 09:31 49.62406 6.20039 1190 ft 23 kts 240°
2026-05-01 09:31 49.62329 6.19831 1190 ft 23 kts 240°
2026-05-01 09:31 49.62192 6.19464 1175 ft 25 kts 239°
2026-05-01 09:32 49.62101 6.19218 1173 ft 27 kts 240°
2026-05-01 09:32 49.61908 6.18767 1168 ft 11 kts 218°
2026-05-01 09:32 49.61906 6.18764 1172 ft 0 kts 218°
2026-05-01 09:33 49.61777 6.18813 1171 ft 17 kts 99°
2026-05-01 09:34 49.61793 6.18880 1175 ft 0 kts 53°
2026-05-01 09:34 49.61802 6.18899 1171 ft 18 kts 53°
2026-05-01 09:34 49.62595 6.21129 1591 ft 166 kts 68°
2026-05-01 09:35 49.62938 6.22782 2781 ft 169 kts 72°
2026-05-01 09:35 49.64496 6.26306 3535 ft 232 kts 62°
2026-05-01 09:35 49.65351 6.28575 4235 ft 252 kts 63°
2026-05-01 09:36 49.66251 6.30919 5397 ft 256 kts 64°
2026-05-01 09:36 49.67151 6.33320 6300 ft 265 kts 64°
2026-05-01 09:36 49.68080 6.35823 7369 ft 271 kts 62°
2026-05-01 09:36 49.69380 6.38021 8304 ft 285 kts 37°
2026-05-01 09:37 49.71254 6.39171 9301 ft 296 kts 10°
2026-05-01 09:37 49.75169 6.37491 11399 ft 307 kts 320°
2026-05-01 09:37 49.76532 6.34870 12126 ft 325 kts 298°
2026-05-01 09:38 49.77218 6.27456 12648 ft 386 kts 257°
2026-05-01 09:38 49.76217 6.23548 13363 ft 395 kts 233°
2026-05-01 09:38 49.74388 6.20406 14214 ft 396 kts 220°
2026-05-01 09:39 49.70157 6.15022 15451 ft 410 kts 232°
2026-05-01 09:39 49.68758 6.11153 16493 ft 414 kts 242°
2026-05-01 09:39 49.67463 6.07162 17488 ft 417 kts 240°
2026-05-01 09:40 49.66033 6.03208 18383 ft 422 kts 238°
2026-05-01 09:40 49.62922 5.95443 20081 ft 431 kts 236°
2026-05-01 09:40 49.61380 5.91466 20801 ft 433 kts 244°
2026-05-01 09:41 49.60544 5.86959 21393 ft 443 kts 265°
2026-05-01 09:41 49.60694 5.77467 22842 ft 449 kts 272°
2026-05-01 09:41 49.60759 5.72634 23631 ft 452 kts 271°
2026-05-01 09:42 49.60789 5.67770 24389 ft 455 kts 271°
2026-05-01 09:42 49.60811 5.62856 25058 ft 459 kts 271°
2026-05-01 09:42 49.60684 5.52894 26303 ft 469 kts 266°
2026-05-01 09:43 49.60152 5.42837 27468 ft 477 kts 266°
2026-05-01 09:43 49.59899 5.37705 28039 ft 481 kts 266°
2026-05-01 09:43 49.59649 5.32525 28594 ft 484 kts 266°
2026-05-01 09:44 49.59136 5.22090 29629 ft 491 kts 265°
2026-05-01 09:44 49.58610 5.16934 30064 ft 494 kts 257°
2026-05-01 09:44 49.57742 5.11766 30491 ft 497 kts 254°
2026-05-01 09:45 49.56768 5.06706 31044 ft 496 kts 253°
2026-05-01 09:45 49.54782 4.96558 32340 ft 490 kts 253°
2026-05-01 09:45 49.53833 4.91514 32923 ft 488 kts 253°
2026-05-01 09:46 49.52925 4.86550 33427 ft 487 kts 254°
2026-05-01 09:46 49.52019 4.81520 33964 ft 486 kts 254°
2026-05-01 09:46 49.51117 4.76476 34433 ft 485 kts 254°
2026-05-01 09:46 49.50235 4.71544 34901 ft 484 kts 253°
2026-05-01 09:47 49.49337 4.66540 35295 ft 483 kts 253°
2026-05-01 09:47 49.48432 4.61524 35275 ft 485 kts 253°
2026-05-01 09:47 49.46636 4.51644 35261 ft 479 kts 253°
2026-05-01 09:48 49.44838 4.41806 35260 ft 477 kts 253°
2026-05-01 09:48 49.43031 4.31986 35268 ft 476 kts 253°
2026-05-01 09:49 49.41220 4.22185 35271 ft 476 kts 253°
2026-05-01 09:49 49.39411 4.12440 35262 ft 477 kts 253°
2026-05-01 09:50 49.37557 4.02636 35267 ft 478 kts 250°
2026-05-01 09:50 49.34849 3.93330 35267 ft 477 kts 239°
2026-05-01 09:51 49.31222 3.84809 35274 ft 477 kts 234°
2026-05-01 09:51 49.27496 3.76420 35271 ft 478 kts 234°
2026-05-01 09:52 49.23776 3.67984 35250 ft 477 kts 234°
2026-05-01 09:52 49.20080 3.59555 35252 ft 477 kts 234°
2026-05-01 09:53 49.16369 3.51108 35262 ft 477 kts 234°
2026-05-01 09:53 49.12684 3.42751 35247 ft 476 kts 234°
2026-05-01 09:54 49.08967 3.34348 35257 ft 476 kts 234°
2026-05-01 09:54 49.05275 3.26028 35261 ft 475 kts 233°
2026-05-01 09:55 49.01558 3.17681 35249 ft 475 kts 233°
2026-05-01 09:55 48.97826 3.09326 35247 ft 475 kts 233°
2026-05-01 09:56 48.94119 3.01047 35240 ft 475 kts 233°
2026-05-01 09:56 48.90398 2.92763 35237 ft 475 kts 233°
2026-05-01 09:57 48.86681 2.84516 35236 ft 475 kts 233°
2026-05-01 09:57 48.82939 2.76234 35242 ft 474 kts 233°
2026-05-01 09:58 48.79214 2.68014 35237 ft 474 kts 232°
2026-05-01 09:58 48.75467 2.59761 35238 ft 474 kts 232°
2026-05-01 09:59 48.71710 2.51507 35248 ft 474 kts 232°
2026-05-01 09:59 48.67975 2.43324 35232 ft 475 kts 232°
2026-05-01 10:00 48.64204 2.35084 35242 ft 475 kts 232°
2026-05-01 10:00 48.60434 2.26873 35238 ft 475 kts 232°
2026-05-01 10:01 48.58421 2.23013 35228 ft 468 kts 221°
2026-05-01 10:01 48.55882 2.20001 35248 ft 461 kts 207°
2026-05-01 10:01 48.53013 2.17896 35241 ft 457 kts 196°
2026-05-01 10:01 48.49981 2.16749 35251 ft 451 kts 188°
2026-05-01 10:02 48.43774 2.14933 35244 ft 455 kts 188°
2026-05-01 10:02 48.37555 2.12980 35246 ft 456 kts 189°
2026-05-01 10:03 48.31328 2.11121 35235 ft 455 kts 184°
2026-05-01 10:03 48.25070 2.10817 35244 ft 451 kts 175°
2026-05-01 10:04 48.18851 2.11958 35245 ft 449 kts 169°
2026-05-01 10:04 48.12620 2.12781 35241 ft 451 kts 178°
2026-05-01 10:05 48.06347 2.11950 35241 ft 452 kts 185°
2026-05-01 10:05 48.00140 2.10687 35241 ft 452 kts 185°
2026-05-01 10:06 47.93895 2.09450 35244 ft 452 kts 185°
2026-05-01 10:06 47.87657 2.08249 35238 ft 451 kts 184°
2026-05-01 10:07 47.81418 2.07056 35240 ft 451 kts 185°
2026-05-01 10:07 47.75217 2.05872 35238 ft 451 kts 185°
2026-05-01 10:08 47.65839 2.04044 35238 ft 452 kts 187°
2026-05-01 10:09 47.59765 2.01657 35240 ft 457 kts 198°
2026-05-01 10:09 47.53841 1.98175 35237 ft 458 kts 199°
2026-05-01 10:10 47.47908 1.94680 35241 ft 459 kts 199°
2026-05-01 10:10 47.38984 1.89506 35237 ft 459 kts 199°
2026-05-01 10:11 47.33052 1.86093 35240 ft 460 kts 199°
2026-05-01 10:11 47.27068 1.82654 35245 ft 460 kts 199°
2026-05-01 10:12 47.22105 1.79807 35242 ft 461 kts 199°
2026-05-01 10:13 47.12125 1.74161 35249 ft 461 kts 200°
2026-05-01 10:13 47.06121 1.70796 35248 ft 462 kts 200°
2026-05-01 10:14 46.97154 1.65777 35258 ft 462 kts 200°
2026-05-01 10:14 46.91154 1.62425 35254 ft 461 kts 200°
2026-05-01 10:15 46.86153 1.59639 35273 ft 461 kts 200°
2026-05-01 10:15 46.80144 1.56298 35264 ft 461 kts 201°
2026-05-01 10:16 46.74175 1.52985 35279 ft 462 kts 201°
2026-05-01 10:17 46.65162 1.48000 35275 ft 462 kts 201°
2026-05-01 10:17 46.56167 1.43041 35261 ft 462 kts 201°
2026-05-01 10:18 46.47137 1.38081 35259 ft 462 kts 201°
2026-05-01 10:19 46.41133 1.34795 35258 ft 462 kts 201°
2026-05-01 10:19 46.35118 1.31508 35257 ft 462 kts 201°
2026-05-01 10:20 46.26089 1.26588 35254 ft 461 kts 201°
2026-05-01 10:20 46.20103 1.23337 35262 ft 462 kts 201°
2026-05-01 10:21 46.11068 1.18444 35274 ft 463 kts 201°
2026-05-01 10:22 46.02022 1.13562 35267 ft 463 kts 202°
2026-05-01 10:23 45.92945 1.08680 35260 ft 464 kts 202°
2026-05-01 10:23 45.83938 1.03627 35270 ft 463 kts 208°
2026-05-01 10:24 45.73493 0.93027 35265 ft 461 kts 221°
2026-05-01 10:25 45.63690 0.81196 35261 ft 462 kts 221°
2026-05-01 10:26 45.58768 0.75333 35246 ft 462 kts 221°
2026-05-01 10:27 45.48849 0.63576 35244 ft 463 kts 221°
2026-05-01 10:28 45.41436 0.54826 35237 ft 463 kts 221°
2026-05-01 10:28 45.33981 0.46053 35244 ft 463 kts 221°
2026-05-01 10:29 45.26536 0.37327 35241 ft 463 kts 221°
2026-05-01 10:30 45.16610 0.25736 35237 ft 463 kts 221°
2026-05-01 10:31 45.06647 0.14153 35233 ft 464 kts 220°
2026-05-01 10:32 44.99145 0.05471 35230 ft 463 kts 220°
2026-05-01 10:33 44.89155 -0.06044 35232 ft 464 kts 219°
2026-05-01 10:34 44.81642 -0.14673 35226 ft 465 kts 219°
2026-05-01 10:34 44.76641 -0.20399 35225 ft 466 kts 219°
2026-05-01 10:35 44.69088 -0.29029 35222 ft 466 kts 219°
2026-05-01 10:35 44.63920 -0.34496 35222 ft 466 kts 212°
2026-05-01 10:36 44.55347 -0.40909 35212 ft 466 kts 207°
2026-05-01 10:37 44.49578 -0.45084 35208 ft 466 kts 208°
2026-05-01 10:37 44.40978 -0.51362 35213 ft 465 kts 208°
2026-05-01 10:38 44.35232 -0.55564 35211 ft 465 kts 208°
2026-05-01 10:38 44.29519 -0.59731 35211 ft 465 kts 208°
2026-05-01 10:39 44.23781 -0.63904 35213 ft 464 kts 207°
2026-05-01 10:39 44.18060 -0.68058 35201 ft 465 kts 207°
2026-05-01 10:40 44.12297 -0.72233 35203 ft 465 kts 207°
2026-05-01 10:40 44.06569 -0.76369 35205 ft 465 kts 207°
2026-05-01 10:41 44.00812 -0.80521 35205 ft 465 kts 207°
2026-05-01 10:42 43.92209 -0.86709 35203 ft 464 kts 207°
2026-05-01 10:42 43.86486 -0.90814 35197 ft 464 kts 207°
2026-05-01 10:43 43.80748 -0.94921 35193 ft 464 kts 207°
2026-05-01 10:43 43.74997 -0.99028 35189 ft 464 kts 207°
2026-05-01 10:44 43.69289 -1.03093 35183 ft 463 kts 207°
2026-05-01 10:44 43.63541 -1.07180 35184 ft 463 kts 207°
2026-05-01 10:45 43.57786 -1.11262 35185 ft 463 kts 207°
2026-05-01 10:45 43.52090 -1.15294 35183 ft 463 kts 207°
2026-05-01 10:46 43.46352 -1.19347 35186 ft 463 kts 207°
2026-05-01 10:46 43.40605 -1.23397 35183 ft 463 kts 207°
2026-05-01 10:47 43.34856 -1.27442 35185 ft 464 kts 207°
2026-05-01 10:47 43.29131 -1.31461 35186 ft 464 kts 207°
2026-05-01 10:48 43.23364 -1.35497 35187 ft 464 kts 207°
2026-05-01 10:48 43.17618 -1.39516 35197 ft 464 kts 207°
2026-05-01 10:49 43.11857 -1.43535 35196 ft 464 kts 207°
2026-05-01 10:49 43.06126 -1.47523 35192 ft 463 kts 207°
2026-05-01 10:50 43.00385 -1.51520 35204 ft 462 kts 207°
2026-05-01 10:50 42.94665 -1.55491 35195 ft 462 kts 207°
2026-05-01 10:51 42.88912 -1.59480 35205 ft 462 kts 207°
2026-05-01 10:51 42.83203 -1.63432 35211 ft 462 kts 207°
2026-05-01 10:52 42.77481 -1.67387 35212 ft 462 kts 207°
2026-05-01 10:52 42.71726 -1.71343 35215 ft 463 kts 207°
2026-05-01 10:53 42.65947 -1.75227 35211 ft 463 kts 207°
2026-05-01 10:53 42.60186 -1.79076 35208 ft 464 kts 207°
2026-05-01 10:54 42.54384 -1.82959 35203 ft 464 kts 207°
2026-05-01 10:54 42.48592 -1.86833 35200 ft 463 kts 207°
2026-05-01 10:55 42.42832 -1.90676 35205 ft 463 kts 207°
2026-05-01 10:55 42.37049 -1.94533 35200 ft 463 kts 207°
2026-05-01 10:56 42.31295 -1.98370 35191 ft 463 kts 207°
2026-05-01 10:56 42.25513 -2.02221 35194 ft 463 kts 207°
2026-05-01 10:57 42.20692 -2.05419 35195 ft 463 kts 207°
2026-05-01 10:57 42.13978 -2.09863 35195 ft 462 kts 207°
2026-05-01 10:58 42.09131 -2.13062 35194 ft 462 kts 207°
2026-05-01 10:58 42.02434 -2.17476 35193 ft 462 kts 207°
2026-05-01 10:59 41.97621 -2.20642 35195 ft 463 kts 207°
2026-05-01 10:59 41.91829 -2.24444 35194 ft 463 kts 207°
2026-05-01 11:00 41.86029 -2.28246 35196 ft 463 kts 207°
2026-05-01 11:00 41.80266 -2.32018 35193 ft 463 kts 207°
2026-05-01 11:01 41.74478 -2.35795 35105 ft 461 kts 207°
2026-05-01 11:01 41.71573 -2.37687 34384 ft 465 kts 207°
2026-05-01 11:01 41.68665 -2.39581 33611 ft 463 kts 207°
2026-05-01 11:01 41.65793 -2.41450 32908 ft 461 kts 207°
2026-05-01 11:02 41.62920 -2.43317 32299 ft 456 kts 207°
2026-05-01 11:02 41.60068 -2.45167 31691 ft 452 kts 207°
2026-05-01 11:02 41.57243 -2.47000 31097 ft 447 kts 207°
2026-05-01 11:02 41.54454 -2.48810 30505 ft 444 kts 207°
2026-05-01 11:03 41.51712 -2.50585 29916 ft 439 kts 207°
2026-05-01 11:03 41.48970 -2.52355 29326 ft 435 kts 207°
2026-05-01 11:03 41.46255 -2.54095 28727 ft 431 kts 206°
2026-05-01 11:03 41.43561 -2.55817 28141 ft 426 kts 206°
2026-05-01 11:04 41.40899 -2.57519 27562 ft 422 kts 206°
2026-05-01 11:04 41.38261 -2.59205 26993 ft 418 kts 206°
2026-05-01 11:04 41.35673 -2.60859 26439 ft 414 kts 206°
2026-05-01 11:04 41.33040 -2.62358 25866 ft 407 kts 198°
2026-05-01 11:05 41.30245 -2.62922 25333 ft 406 kts 181°
2026-05-01 11:05 41.27486 -2.62683 24830 ft 401 kts 178°
2026-05-01 11:05 41.24706 -2.62378 24305 ft 398 kts 178°
2026-05-01 11:05 41.21958 -2.62089 23785 ft 395 kts 178°
2026-05-01 11:06 41.19212 -2.61818 23269 ft 392 kts 178°
2026-05-01 11:06 41.16504 -2.61564 22764 ft 389 kts 178°
2026-05-01 11:06 41.13813 -2.61320 22259 ft 386 kts 178°
2026-05-01 11:07 41.08518 -2.60846 21280 ft 380 kts 178°
2026-05-01 11:07 41.05886 -2.60613 20786 ft 378 kts 178°
2026-05-01 11:07 41.03248 -2.60379 20290 ft 375 kts 177°
2026-05-01 11:07 41.00672 -2.60148 19803 ft 373 kts 177°
2026-05-01 11:08 40.98087 -2.59921 19321 ft 370 kts 177°
2026-05-01 11:08 40.95556 -2.59696 18776 ft 368 kts 177°
2026-05-01 11:08 40.90439 -2.59249 17688 ft 367 kts 177°
2026-05-01 11:09 40.87901 -2.59021 17196 ft 365 kts 177°
2026-05-01 11:09 40.85381 -2.58858 16699 ft 357 kts 183°
2026-05-01 11:09 40.82974 -2.59578 16230 ft 354 kts 203°
2026-05-01 11:10 40.79114 -2.63437 15201 ft 352 kts 225°
2026-05-01 11:10 40.77407 -2.65777 14578 ft 353 kts 226°
2026-05-01 11:10 40.75740 -2.68088 14272 ft 345 kts 226°
2026-05-01 11:10 40.74104 -2.70332 14180 ft 331 kts 226°
2026-05-01 11:11 40.72543 -2.72450 14089 ft 317 kts 226°
2026-05-01 11:11 40.71068 -2.74432 13898 ft 290 kts 225°
2026-05-01 11:11 40.69700 -2.76259 13533 ft 270 kts 225°
2026-05-01 11:11 40.68404 -2.77987 12990 ft 262 kts 225°
2026-05-01 11:12 40.67125 -2.79685 12629 ft 262 kts 225°
2026-05-01 11:12 40.65850 -2.81375 12343 ft 258 kts 224°
2026-05-01 11:12 40.64438 -2.82820 11982 ft 256 kts 213°
2026-05-01 11:12 40.62918 -2.84042 11614 ft 255 kts 211°
2026-05-01 11:13 40.61387 -2.85227 11249 ft 255 kts 211°
2026-05-01 11:13 40.59883 -2.86396 10904 ft 254 kts 211°
2026-05-01 11:13 40.58356 -2.87596 10556 ft 253 kts 211°
2026-05-01 11:13 40.56862 -2.88780 10215 ft 252 kts 210°
2026-05-01 11:14 40.55377 -2.89960 9999 ft 248 kts 210°
2026-05-01 11:14 40.53897 -2.91144 10015 ft 250 kts 211°
2026-05-01 11:14 40.52396 -2.92344 10009 ft 253 kts 211°
2026-05-01 11:14 40.50886 -2.93551 10023 ft 254 kts 210°
2026-05-01 11:15 40.49377 -2.94763 10004 ft 253 kts 211°
2026-05-01 11:15 40.47880 -2.95965 10000 ft 250 kts 211°
2026-05-01 11:15 40.46402 -2.97153 10016 ft 248 kts 210°
2026-05-01 11:15 40.44945 -2.98320 9994 ft 248 kts 211°
2026-05-01 11:16 40.43474 -2.99498 9975 ft 247 kts 211°
2026-05-01 11:16 40.41984 -3.00691 10000 ft 253 kts 211°
2026-05-01 11:16 40.40483 -3.01897 9869 ft 258 kts 211°
2026-05-01 11:16 40.38947 -3.03123 9660 ft 258 kts 210°
2026-05-01 11:17 40.37433 -3.04337 9451 ft 252 kts 210°
2026-05-01 11:17 40.35952 -3.05520 9240 ft 246 kts 210°
2026-05-01 11:17 40.34498 -3.06681 9077 ft 244 kts 210°
2026-05-01 11:17 40.33037 -3.07849 8903 ft 248 kts 210°
2026-05-01 11:18 40.31543 -3.09044 8712 ft 251 kts 210°
2026-05-01 11:18 40.30048 -3.10240 8516 ft 251 kts 210°
2026-05-01 11:18 40.28555 -3.11427 8335 ft 250 kts 210°
2026-05-01 11:18 40.27066 -3.12612 8140 ft 249 kts 210°
2026-05-01 11:19 40.25796 -3.14070 7926 ft 247 kts 235°
2026-05-01 11:19 40.25096 -3.16118 7762 ft 246 kts 249°
2026-05-01 11:19 40.24535 -3.18231 7585 ft 246 kts 249°
2026-05-01 11:19 40.23965 -3.20358 7396 ft 248 kts 249°
2026-05-01 11:20 40.23402 -3.22451 7177 ft 244 kts 249°
2026-05-01 11:20 40.22844 -3.24510 6990 ft 234 kts 249°
2026-05-01 11:20 40.22427 -3.26507 6764 ft 224 kts 269°
2026-05-01 11:20 40.22925 -3.28377 6464 ft 215 kts 308°
2026-05-01 11:21 40.23881 -3.29780 6186 ft 200 kts 311°
2026-05-01 11:21 40.24767 -3.31082 5902 ft 187 kts 310°
2026-05-01 11:21 40.25606 -3.32315 5700 ft 173 kts 310°
2026-05-01 11:21 40.26375 -3.33445 5382 ft 159 kts 310°
2026-05-01 11:22 40.27091 -3.34498 4927 ft 154 kts 310°
2026-05-01 11:22 40.27778 -3.35502 4606 ft 142 kts 311°
2026-05-01 11:22 40.28461 -3.36513 4496 ft 154 kts 310°
2026-05-01 11:22 40.29176 -3.37568 4295 ft 152 kts 310°
2026-05-01 11:23 40.29881 -3.38552 4089 ft 143 kts 316°
2026-05-01 11:23 40.30651 -3.39438 4081 ft 150 kts 319°
2026-05-01 11:23 40.31461 -3.40303 4074 ft 152 kts 321°
2026-05-01 11:23 40.32267 -3.41155 4003 ft 144 kts 317°
2026-05-01 11:24 40.33068 -3.41978 4018 ft 150 kts 321°
2026-05-01 11:24 40.33898 -3.42804 4021 ft 149 kts 321°
2026-05-01 11:24 40.35540 -3.44460 3990 ft 148 kts 320°
2026-05-01 11:25 40.36354 -3.45288 4031 ft 151 kts 322°
2026-05-01 11:25 40.38027 -3.46985 3992 ft 152 kts 322°
2026-05-01 11:25 40.38886 -3.47853 3796 ft 156 kts 321°
2026-05-01 11:26 40.39720 -3.48705 3573 ft 150 kts 322°
2026-05-01 11:26 40.41358 -3.50363 3198 ft 145 kts 322°
2026-05-01 11:26 40.42173 -3.51193 2986 ft 147 kts 321°
2026-05-01 11:27 40.42981 -3.52011 2813 ft 146 kts 321°
2026-05-01 11:27 40.43789 -3.52835 2600 ft 147 kts 322°
2026-05-01 11:27 40.44583 -3.53640 2415 ft 145 kts 321°
2026-05-01 11:27 40.45387 -3.54456 2220 ft 145 kts 322°
2026-05-01 11:28 40.46177 -3.55261 2041 ft 145 kts 322°
2026-05-01 11:28 40.46956 -3.56054 1973 ft 128 kts 322°
2026-05-01 11:28 40.47481 -3.56594 1987 ft 50 kts 311°
2026-05-01 11:29 40.47560 -3.56803 1988 ft 7 kts 291°
2026-05-01 11:29 40.47549 -3.56855 1986 ft 7 kts 216°
2026-05-01 11:29 40.47437 -3.56806 1983 ft 11 kts 148°
2026-05-01 11:30 40.47369 -3.56740 1982 ft 13 kts 137°
2026-05-01 11:30 40.47293 -3.56652 1981 ft 16 kts 141°
2026-05-01 11:30 40.47202 -3.56557 1976 ft 18 kts 142°
2026-05-01 11:30 40.47095 -3.56469 1978 ft 19 kts 162°
2026-05-01 11:31 40.46961 -3.56447 1975 ft 20 kts 180°
2026-05-01 11:31 40.46813 -3.56456 1969 ft 22 kts 183°
2026-05-01 11:31 40.46660 -3.56469 1966 ft 22 kts 183°
2026-05-01 11:31 40.46507 -3.56479 1963 ft 22 kts 182°
2026-05-01 11:32 40.46355 -3.56488 1960 ft 22 kts 182°
2026-05-01 11:32 40.46203 -3.56498 1958 ft 22 kts 183°
2026-05-01 11:32 40.46050 -3.56509 1955 ft 22 kts 184°
2026-05-01 11:32 40.45898 -3.56531 1952 ft 22 kts 184°
2026-05-01 11:33 40.45809 -3.56651 1952 ft 22 kts 273°
2026-05-01 11:33 40.45776 -3.56841 1953 ft 22 kts 227°
2026-05-01 11:33 40.45758 -3.56865 1953 ft 1 kts 225°
2026-05-01 11:33 40.45729 -3.56903 1953 ft 19 kts 226°
2026-05-01 11:34 40.45615 -3.57056 1953 ft 24 kts 224°
2026-05-01 11:34 40.45499 -3.57208 1952 ft 18 kts 222°
2026-05-01 11:34 40.45441 -3.57260 1952 ft 10 kts 214°
2026-05-01 11:34 40.45393 -3.57234 1951 ft 8 kts 135°
2026-05-01 11:35 40.45379 -3.57216 1951 ft 0 kts 134°